Startpagina
METAR-TAF:

METAR-TAF

Vliegvelden :

Machala, Ecuador

breedte: 03-26-07S, lengte: 079-58-40W, hoogte: 52 m

Actueel weer

Dit bericht is 6 uur en het 45 minuten geleden gemaakt, om 02:00 UTC
Wind 2 kt uit het zuidoosten
Temperatuur 26°C
Vochtigheid 89%
Druk 1011 hPa
Zicht 10 km of meer
Verspreide wolken op 7000 ft

METAR: SERO 290200Z 13002KT 9999 SCT070 26/24 Q1011

Tijdstip: 03:45 (08:45 UTC)


TAF: ontbreekt

Waarnemingen en weersverwachtingen van meer dan 4000 vliegvelden (METAR en TAF).

De beschikbare stations zijn de gele en rode punten op de kaart.

Ga met uw muis naar het station om de naam te zien.

Klik dan om waarnemingen en weersverwachtingen te zien.

kaart wijzigen: klik op de groene knoppen met een zwart kruis om in te zoomen, op de groene knop met een streepje om uit te zoomen of op de groene pijlen voor aangrenzende kaarten.


METAR-TAF: